Little Rock AFB, AR

3:41 AM CDT on August 17, 2017 (GMT -0500)
Little Rock Air Force Base

Weather History for KLRF - July, 2013

Change the Weather History Date:

Tuesday, July 9, 2013

  Actual Average Record
Temperature  
Mean Temperature 86 °F -  
Max Temperature 97 °F 93 °F 103 °F (1980)
Min Temperature 76 °F 70 °F 64 °F (2006)
Cooling Degree Days 22    
Growing Degree Days 36 (Base 50)    
Moisture  
Dew Point 71 °F    
Average Humidity 59    
Maximum Humidity 84    
Minimum Humidity 41    
Precipitation  
Precipitation 0.00 in - - ()
Sea Level Pressure  
Sea Level Pressure 30.06 in    
Wind  
Wind Speed 7 mph (SSW)    
Max Wind Speed 12 mph    
Max Gust Speed 20 mph    
Visibility 10 miles    
Events      
Averages and records for this station are not official NWS values.
T = Trace of Precipitation, MM = Missing Value Source: NWS Daily Summary

Daily Weather History Graph

Daily Weather History Graph

Search for Another Location

Airport or City:

Trip Planner

Search our weather history database for the weather conditions in past years. The results will help you decide how hot, cold, wet, or windy it might be!

Date:

Astronomy

Jul. 09, 2013 Rise Set
Actual Time 6:02 AM CDT 8:24 PM CDT
Civil Twilight 5:33 AM CDT 8:54 PM CDT
Nautical Twilight 4:57 AM CDT 9:29 PM CDT
Astronomical Twilight 4:18 AM CDT 10:09 PM CDT
Moon 7:22 AM CDT (7/9) 9:08 PM CDT (7/9)
Length of Visible Light 15h 20m
Length of Day
14h 22m
New Moon, 2% of the Moon is Illuminated
Jul 9
New Moon
Jul 15
First Quarter
Jul 22
Full
Jul 29
Last Quarter
Aug 6
New

Hourly Weather History & Observations

Time (CDT) Temp. Heat Index Dew Point Humidity Pressure Visibility Wind Dir Wind Speed Gust Speed Precip Events Conditions
12:58 AM 81.9 °F 86.4 °F 71.8 °F 71% 30.08 in 10.0 mi South 6.9 mph - N/A   Clear
1:58 AM 80.8 °F 84.7 °F 71.6 °F 73% 30.08 in 10.0 mi South 4.6 mph - N/A   Clear
2:58 AM 79.7 °F - 71.2 °F 75% 30.08 in 10.0 mi SSW 4.6 mph - N/A   Clear
3:58 AM 80.1 °F 83.4 °F 70.9 °F 73% 30.08 in 10.0 mi South 4.6 mph - N/A   Clear
4:58 AM 78.8 °F - 70.9 °F 77% 30.09 in 10.0 mi South 4.6 mph - N/A   Clear
5:58 AM 76.3 °F - 71.1 °F 84% 30.10 in 10.0 mi SSE 3.5 mph - N/A   Clear
6:58 AM 77.9 °F - 71.2 °F 80% 30.10 in 10.0 mi SSW 5.8 mph - N/A   Clear
7:58 AM 81.1 °F 85.4 °F 71.6 °F 73% 30.11 in 10.0 mi SSW 6.9 mph - N/A   Mostly Cloudy
8:58 AM 85.1 °F 90.4 °F 71.1 °F 63% 30.13 in 10.0 mi SW 9.2 mph - N/A   Clear
9:58 AM 88.0 °F 93.8 °F 71.2 °F 57% 30.11 in 10.0 mi WSW 8.1 mph - N/A   Clear
10:58 AM 90.9 °F 97.3 °F 71.2 °F 52% 30.11 in 10.0 mi WSW 10.4 mph - N/A   Clear
11:58 AM 93.4 °F 100.9 °F 71.6 °F 49% 30.10 in 10.0 mi WSW 11.5 mph - N/A   Scattered Clouds
12:58 PM 92.5 °F 99.0 °F 70.5 °F 49% 30.09 in 10.0 mi WSW 3.5 mph - N/A   Mostly Cloudy
1:58 PM 95.5 °F 102.4 °F 70.7 °F 44% 30.07 in 10.0 mi SSW 5.8 mph - N/A   Scattered Clouds
2:58 PM 97.3 °F 104.9 °F 70.5 °F 42% 30.05 in 10.0 mi SSW 10.4 mph - N/A   Partly Cloudy
3:58 PM 95.7 °F 102.8 °F 70.9 °F 44% 30.02 in 10.0 mi SW 10.4 mph - N/A   Mostly Cloudy
4:58 PM 95.0 °F 101.9 °F 70.9 °F 45% 30.01 in 10.0 mi South 10.4 mph - N/A   Mostly Cloudy
5:58 PM 96.8 °F 104.4 °F 70.7 °F 43% 30.00 in 10.0 mi SW 11.5 mph 19.6 mph N/A   Scattered Clouds
6:52 PM 96.8 °F 103.1 °F 69.8 °F 41% 29.99 in 10.0 mi South 11.5 mph - N/A   Clear
6:58 PM 95.7 °F 102.1 °F 70.2 °F 43% 29.99 in 10.0 mi South 11.5 mph - N/A   Clear
7:58 PM 92.1 °F 98.3 °F 70.5 °F 49% 29.99 in 10.0 mi South 8.1 mph - N/A   Mostly Cloudy
8:58 PM 89.4 °F 96.8 °F 72.1 °F 57% 30.00 in 10.0 mi South 8.1 mph - N/A   Mostly Cloudy
9:58 PM 86.5 °F 93.3 °F 72.5 °F 63% 30.01 in 10.0 mi South 5.8 mph - N/A   Clear
10:58 PM 84.7 °F 91.0 °F 72.9 °F 67% 30.02 in 10.0 mi South 6.9 mph - N/A   Clear
11:58 PM 83.8 °F 89.2 °F 72.0 °F 67% 30.02 in 10.0 mi South 9.2 mph - N/A   Clear